Location: Unspecified
(58.3661°N, 0.0000°E)
Time: 13:14:44
(UTC+00:00)

NOAA 18 - Visible Passes

Search period start: 04 April 2026 00:00
Search period end: 14 April 2026 00:00
Orbit: 836 x 857 km, 98.8° (Epoch: 29 March)

Date Brightness Start Highest point End Pass type
(mag) Time Alt. Az. Time Alt. Az. Time Alt. Az.
4 Apr 7.0 19:27:22 10° ENE 19:30:47 17° NE 19:34:12 10° N visible
4 Apr 5.5 21:07:36 27° SE 21:10:22 52° ENE 21:15:41 10° NNW visible
4 Apr 6.1 22:49:31 31° SW 22:51:11 39° W 22:56:20 10° NNW visible
5 Apr 5.8 20:54:20 22° ESE 20:57:25 44° ENE 21:02:37 10° N visible
5 Apr 5.8 22:36:14 34° SSW 22:38:05 47° W 22:43:24 10° NNW visible
6 Apr 7.6 00:18:58 10° W 00:20:08 11° WNW 00:21:18 10° WNW visible
6 Apr 6.0 20:41:03 18° ESE 20:44:30 38° ENE 20:49:32 10° N visible
6 Apr 5.6 22:22:58 36° SSW 22:25:00 57° WSW 22:30:26 10° NNW visible
7 Apr 7.4 00:04:52 11° WSW 00:06:52 13° W 00:09:26 10° NW visible
7 Apr 6.2 20:27:46 15° ESE 20:31:36 32° NE 20:36:26 10° N visible
7 Apr 5.3 22:09:41 36° S 22:11:56 69° WSW 22:17:26 10° NNW visible
7 Apr 7.2 23:51:36 14° WSW 23:53:36 16° W 23:56:59 10° NW visible
8 Apr 6.4 20:14:30 12° ESE 20:18:43 28° NE 20:23:19 10° N visible
8 Apr 5.2 21:56:24 34° SSE 21:58:53 82° WSW 22:04:25 10° NNW visible
8 Apr 7.0 23:38:19 16° WSW 23:40:23 20° W 23:44:19 10° NW visible
9 Apr 6.6 20:01:33 10° E 20:05:52 24° NE 20:10:12 10° N visible
9 Apr 5.1 21:43:08 31° SSE 21:45:52 84° ENE 21:51:24 10° NNW visible
9 Apr 6.8 23:25:03 19° WSW 23:27:10 24° W 23:31:34 10° NW visible
10 Apr 6.8 19:49:00 10° E 19:53:01 21° NE 19:57:04 10° N visible
10 Apr 5.2 21:29:52 27° SE 21:32:52 71° ENE 21:38:22 10° NNW visible
10 Apr 6.6 23:11:46 22° SW 23:13:59 29° W 23:18:44 10° NNW visible
11 Apr 5.4 21:16:35 24° SE 21:19:54 59° ENE 21:25:19 10° NNW visible
11 Apr 6.3 22:58:30 24° SW 23:00:50 34° W 23:05:51 10° NNW visible
12 Apr 5.6 21:03:19 20° SE 21:06:56 50° ENE 21:12:15 10° NNW visible
12 Apr 6.1 22:45:14 26° SSW 22:47:42 41° W 22:52:56 10° NNW visible
13 Apr 5.9 20:50:03 16° ESE 20:53:59 42° ENE 20:59:10 10° N visible
13 Apr 5.8 22:31:57 28° SSW 22:34:36 50° W 22:39:59 10° NNW visible
